GW3079 Weather Reports


time (UTC)temp
F
wind
direction
speed
knots
gust
knots
rain 1hr
in
rain 24hr
in
rain mn
in
humidity
%
barometer
mb
20260503181538 75 65 0.9 3.5 0.00 0.00 0.00 47 1014.9
20260503181009 75 110 0.9 4.3 0.00 0.00 0.00 44 1014.3
20260503180507 75 224 0.9 3.5 0.00 0.00 0.00 46 1014.3
20260503180046 74 207 0.9 3.5 0.00 0.00 0.00 49 1014.9
20260503180032 74 208 0.0 3.5 0.00 0.00 0.00 48 1014.4
20260503175515 74 321 1.7 3.5 0.00 0.00 0.00 47 1014.4
20260503175007 73 171 0.9 4.3 0.00 0.00 0.00 48 1014.5
20260503174541 72 172 0.0 4.3 0.00 0.00 0.00 51 1015.1
20260503174525 72 167 0.0 4.3 0.00 0.00 0.00 51 1014.5
20260503174011 72 172 0.9 3.5 0.00 0.00 0.00 50 1014.6
20260503173034 73 199 0.9 3.5 0.00 0.00 0.00 53 1015.3
20260503173029 73 193 1.7 3.5 0.00 0.00 0.00 52 1014.8
20260503172512 72 158 0.0 2.6 0.00 0.00 0.00 55 1014.8
20260503172005 71 167 0.9 3.5 0.00 0.00 0.00 53 1014.9
20260503171524 72 180 0.0 3.5 0.00 0.00 0.00 55 1015.4
20260503171005 73 205 0.0 1.7 0.00 0.00 0.00 53 1015.0
20260503170509 72 151 0.0 1.7 0.00 0.00 0.00 57 1015.0
20260503151008 58 199 0.0 1.7 0.00 0.00 0.00 79 1015.6
20260503150107 58 159 0.0 0.0 0.00 0.00 0.00 78 1016.1
20260503090507 52 18 0.0 0.0 0.00 0.00 0.00 88 1015.1
20260503081531 54 42 0.0 0.0 0.00 0.00 0.00 87 1015.6
20260503081528 54 42 0.0 0.0 0.00 0.00 0.00 86 1015.1
20260503081014 54 6 0.0 0.0 0.00 0.00 0.00 86 1015.1
20260503080507 54 6 0.0 0.0 0.00 0.00 0.00 85 1015.1
20260503072508 56 101 0.0 1.7 0.00 0.00 0.00 81 1015.0
20260503072013 56 49 0.0 1.7 0.00 0.00 0.00 80 1015.0
20260503071525 56 43 0.9 1.7 0.00 0.00 0.00 79 1015.0
20260503071500 56 43 0.9 1.7 0.00 0.00 0.00 80 1015.4
20260503071010 56 58 0.0 0.9 0.00 0.00 0.00 81 1015.0
20260503070508 56 59 0.0 0.0 0.00 0.00 0.00 81 1014.9
20260503070105 56 59 0.0 0.0 0.00 0.00 0.00 82 1015.3
20260503055007 60 49 0.0 0.0 0.00 0.00 0.00 75 1014.6
20260503054555 60 49 0.0 0.0 0.00 0.00 0.00 75 1014.9
20260503054519 60 49 0.0 0.0 0.00 0.00 0.00 74 1014.6
20260503053506 61 49 0.0 0.0 0.00 0.00 0.00 74 1014.5
20260503053056 61 49 0.0 0.9 0.00 0.00 0.00 73 1014.9
20260503053022 61 49 0.0 0.9 0.00 0.00 0.00 73 1014.6
20260503052507 61 49 0.0 0.9 0.00 0.00 0.00 71 1014.6
20260503051557 62 49 0.0 1.7 0.00 0.00 0.00 70 1014.8
20260503051007 62 47 0.9 1.7 0.00 0.00 0.00 68 1014.4
20260503050509 62 50 0.9 1.7 0.00 0.00 0.00 69 1014.4
20260503050056 63 50 0.9 1.7 0.00 0.00 0.00 69 1014.7
20260503050029 63 50 0.9 1.7 0.00 0.00 0.00 69 1014.4
20260503045511 63 51 0.0 0.0 0.00 0.00 0.00 70 1014.3
20260503045010 63 51 0.0 0.9 0.00 0.00 0.00 67 1014.3
20260503044607 63 60 0.0 0.9 0.00 0.00 0.00 68 1014.7
20260503044511 63 60 0.0 0.9 0.00 0.00 0.00 66 1014.3
20260503043057 65 60 0.0 1.7 0.00 0.00 0.00 64 1014.6
20260503043016 65 60 0.0 1.7 0.00 0.00 0.00 63 1014.2
20260503041553 66 44 0.0 0.0 0.00 0.00 0.00 61 1014.5
20260503040100 68 44 0.0 0.9 0.00 0.00 0.00 59 1014.3
20260503035510 69 290 0.0 0.0 0.00 0.00 0.00 53 1013.8
20260503035010 69 288 0.0 0.0 0.00 0.00 0.00 51 1013.7
20260503034559 70 288 0.0 0.0 0.00 0.00 0.00 50 1014.1
20260503034526 70 288 0.0 0.0 0.00 0.00 0.00 49 1013.7
20260503034010 71 288 0.0 0.0 0.00 0.00 0.00 48 1013.7
20260503033510 71 288 0.0 0.0 0.00 0.00 0.00 48 1013.5
20260503033054 72 288 0.0 0.9 0.00 0.00 0.00 47 1013.9
20260503031551 74 248 0.0 1.7 0.00 0.00 0.00 43 1013.8
20260503030118 75 191 0.0 4.3 0.00 0.00 0.00 42 1013.8
20260503024550 77 212 0.0 4.3 0.00 0.00 0.00 41 1013.6
20260503024010 78 217 0.9 2.6 0.00 0.00 0.00 39 1013.3
20260503023510 79 261 0.0 3.5 0.00 0.00 0.00 40 1013.2
20260503023049 79 238 0.0 3.5 0.00 0.00 0.00 39 1013.7
20260503023023 79 229 0.0 3.5 0.00 0.00 0.00 39 1013.2
20260503022508 79 243 0.0 3.5 0.00 0.00 0.00 38 1013.3
20260503022012 80 274 0.9 3.5 0.00 0.00 0.00 38 1013.3
20260503021550 80 302 0.0 1.7 0.00 0.00 0.00 39 1013.7
20260503021519 80 172 0.0 2.6 0.00 0.00 0.00 38 1013.3
20260503020047 80 281 0.0 5.2 0.00 0.00 0.00 38 1013.7
20260503014601 79 283 0.9 8.7 0.00 0.00 0.00 37 1013.9
20260503013050 80 293 0.9 2.6 0.00 0.00 0.00 38 1014.0
20260503012511 80 275 0.0 5.2 0.00 0.00 0.00 38 1013.6
20260503012009 79 284 0.9 7.0 0.00 0.00 0.00 38 1013.7
20260503011552 79 295 0.9 7.0 0.00 0.00 0.00 38 1014.1
20260503011532 79 275 1.7 7.0 0.00 0.00 0.00 38 1013.7
20260503011010 80 288 2.6 7.0 0.00 0.00 0.00 37 1013.7
20260503010509 80 178 2.6 6.1 0.00 0.00 0.00 37 1013.8
20260503010043 80 275 2.6 6.1 0.00 0.00 0.00 37 1014.1
20260503005014 80 223 1.7 7.8 0.00 0.00 0.00 37 1013.8
20260503004540 80 274 0.9 5.2 0.00 0.00 0.00 38 1014.2
20260503003047 79 215 2.6 9.6 0.00 0.00 0.00 38 1014.3
20260503002506 79 233 2.6 9.6 0.00 0.00 0.00 38 1014.1
20260503001537 79 285 3.5 8.7 0.00 0.00 0.00 38 1014.5
20260503001008 80 300 3.5 7.0 0.00 0.00 0.00 38 1014.2
20260503000036 79 211 2.6 7.8 0.00 0.00 0.00 42 1014.5
20260503000018 79 281 3.5 7.8 0.00 0.00 0.00 40 1014.2
20260502235006 79 215 2.6 7.0 0.00 0.00 0.00 40 1014.3
20260502234534 79 262 1.7 6.1 0.00 0.00 0.00 39 1014.7
20260502233510 80 295 1.7 6.1 0.00 0.00 0.00 41 1014.3
20260502233032 80 290 0.0 6.1 0.00 0.00 0.00 43 1014.7
20260502233007 80 19 0.0 6.1 0.00 0.00 0.00 42 1014.5
20260502232006 80 293 1.7 5.2 0.00 0.00 0.00 42 1014.5
20260502231530 79 251 0.9 4.3 0.00 0.00 0.00 43 1014.9
20260502230027 78 255 2.6 6.1 0.00 0.00 0.00 43 1015.1
20260502225006 79 217 1.7 5.2 0.00 0.00 0.00 46 1014.8
20260502224525 78 288 1.7 6.1 0.00 0.00 0.00 46 1015.3
20260502224521 78 268 2.6 7.0 0.00 0.00 0.00 45 1014.9
20260502224010 78 283 2.6 7.0 0.00 0.00 0.00 46 1015.0
20260502223509 79 213 0.9 7.0 0.00 0.00 0.00 47 1015.0
20260502223023 78 335 2.6 7.0 0.00 0.00 0.00 48 1015.5
20260502223020 78 286 2.6 7.0 0.00 0.00 0.00 48 1015.1
20260502222507 78 262 3.5 6.1 0.00 0.00 0.00 47 1015.1
20260502222007 79 176 3.5 7.0 0.00 0.00 0.00 46 1015.1
20260502221521 79 186 1.7 7.8 0.00 0.00 0.00 47 1015.6
20260502221003 79 284 4.3 7.8 0.00 0.00 0.00 45 1015.3
20260502220023 79 273 4.3 7.0 0.00 0.00 0.00 45 1015.7
20260502215005 79 269 2.6 5.2 0.00 0.00 0.00 42 1015.3
20260502214517 79 264 0.0 4.3 0.00 0.00 0.00 44 1016.0
20260502214006 80 331 0.9 4.3 0.00 0.00 0.00 43 1015.5
20260502213506 80 291 0.9 4.3 0.00 0.00 0.00 43 1015.6
20260502213033 80 264 0.9 3.5 0.00 0.00 0.00 43 1016.2
20260502213027 80 274 1.7 3.5 0.00 0.00 0.00 43 1015.7
20260502212507 79 221 0.0 4.3 0.00 0.00 0.00 44 1015.7
20260502212008 79 277 1.7 4.3 0.00 0.00 0.00 43 1015.7
20260502211525 79 228 0.9 7.0 0.00 0.00 0.00 46 1015.8
20260502211513 79 248 0.0 7.0 0.00 0.00 0.00 46 1016.2
20260502211008 78 280 0.9 7.0 0.00 0.00 0.00 46 1015.9
20260502210511 77 262 1.7 5.2 0.00 0.00 0.00 46 1015.9
20260502210024 77 210 2.6 5.2 0.00 0.00 0.00 47 1015.9
20260502210010 77 209 1.7 5.2 0.00 0.00 0.00 47 1016.4
20260502204508 77 285 0.0 7.8 0.00 0.00 0.00 47 1016.6
20260502203018 76 289 3.5 7.0 0.00 0.00 0.00 48 1016.2
20260502203007 76 312 2.6 7.0 0.00 0.00 0.00 48 1016.8
20260502202508 77 271 2.6 5.2 0.00 0.00 0.00 46 1016.3
20260502201531 75 165 0.0 7.0 0.00 0.00 0.00 49 1016.4
20260502201504 75 165 0.0 7.0 0.00 0.00 0.00 50 1016.9
20260502201010 75 239 2.6 7.0 0.00 0.00 0.00 49 1016.5
20260502200510 74 165 1.7 5.2 0.00 0.00 0.00 49 1016.5
20260502200027 74 281 3.5 5.2 0.00 0.00 0.00 48 1016.6
20260502200003 74 281 2.6 5.2 0.00 0.00 0.00 48 1017.1
20260502195512 75 191 1.7 5.2 0.00 0.00 0.00 48 1016.6
20260502195009 74 177 1.7 5.2 0.00 0.00 0.00 49 1016.7
20260502194601 73 269 1.7 5.2 0.00 0.00 0.00 49 1017.3
20260502194536 73 271 1.7 5.2 0.00 0.00 0.00 49 1016.7
20260502194004 73 266 1.7 6.1 0.00 0.00 0.00 48 1016.8
20260502193100 73 284 1.7 6.1 0.00 0.00 0.00 49 1017.4
20260502193016 73 276 2.6 6.1 0.00 0.00 0.00 49 1016.9
20260502192008 72 275 1.7 6.1 0.00 0.00 0.00 52 1017.0
20260502191601 72 288 1.7 6.1 0.00 0.00 0.00 53 1017.6
20260502190510 72 223 0.9 3.5 0.00 0.00 0.00 52 1017.2
20260502190055 72 214 0.9 3.5 0.00 0.00 0.00 53 1017.7
20260502190022 72 215 0.9 3.5 0.00 0.00 0.00 54 1017.2
20260502185509 71 193 1.7 4.3 0.00 0.00 0.00 56 1017.2
20260502185010 71 288 0.9 5.2 0.00 0.00 0.00 56 1017.3
20260502184552 70 195 0.0 6.1 0.00 0.00 0.00 60 1017.8
20260502184533 70 313 0.9 6.1 0.00 0.00 0.00 57 1017.3
20260502184009 70 215 2.6 6.1 0.00 0.00 0.00 58 1017.3
20260502183514 70 202 0.9 4.3 0.00 0.00 0.00 58 1017.4
20260502183052 70 218 1.7 4.3 0.00 0.00 0.00 59 1018.0
20260502183025 70 283 2.6 4.3 0.00 0.00 0.00 58 1017.5